This is the latest recevied weather packets stored in our database for station/object KP4CRN. If no packets are shown the sender has not sent any weather packets the latest 10 day(s).
| Time | Temp. | Humidity | Pressure | Rain* | Wind** | Luminosity | Snow |
|---|---|---|---|---|---|---|---|
| 1778006171 | 32.78° C | 62% | 1016 hPa | 0 mm | - | 658 W/m² | - |
| 1778005869 | 32.78° C | 62% | 1016.3 hPa | 0 mm | - | 670 W/m² | - |
| 1778005565 | 33.33° C | 62% | 1016.3 hPa | 0 mm | - | 678 W/m² | - |
| 1778005262 | 33.33° C | 60% | 1016.1 hPa | 0 mm | - | 691 W/m² | - |
| 1778004958 | 32.78° C | 60% | 1016.3 hPa | 0 mm | - | 697 W/m² | - |
| 1778004656 | 32.78° C | 63% | 1016.6 hPa | 0 mm | - | 336 W/m² | - |
| 1778004351 | 33.33° C | 61% | 1016.6 hPa | 0 mm | - | 107 W/m² | - |
| 1778004049 | 32.78° C | 64% | 1016.6 hPa | 0 mm | - | 98 W/m² | - |
| 1778003744 | 32.78° C | 64% | 1016.8 hPa | 0 mm | - | 462 W/m² | - |
| 1778003441 | 33.33° C | 64% | 1016.7 hPa | 0 mm | - | 573 W/m² | - |
| 1778003138 | 32.78° C | 66% | 1016.7 hPa | 0 mm | - | 472 W/m² | - |
| 1778002834 | 33.33° C | 64% | 1017 hPa | 0 mm | - | 150 W/m² | - |
| 1778002531 | 32.22° C | 66% | 1017.1 hPa | 0 mm | - | 108 W/m² | - |
| 1778002228 | 32.22° C | 66% | 1017.1 hPa | 0 mm | - | 122 W/m² | - |
| 1778001926 | 32.78° C | 67% | 1017.2 hPa | 0 mm | - | 127 W/m² | - |
| 1778001622 | 32.78° C | 65% | 1017.3 hPa | 0 mm | - | 153 W/m² | - |
| 1778001317 | 32.78° C | 65% | 1017.1 hPa | 0 mm | - | 116 W/m² | - |
| 1778001014 | 32.78° C | 64% | 1017.1 hPa | 0 mm | - | 118 W/m² | - |
| 1778000711 | 32.78° C | 64% | 1017 hPa | 0 mm | - | 118 W/m² | - |
| 1778000407 | 32.78° C | 64% | 1017.1 hPa | 0 mm | - | 114 W/m² | - |
| 1778000102 | 32.78° C | 64% | 1017.2 hPa | 0 mm | - | 289 W/m² | - |
| 1777999798 | 32.78° C | 66% | 1017.1 hPa | 0 mm | - | 807 W/m² | - |
| 1777999494 | 32.22° C | 65% | 1017.3 hPa | 0 mm | - | 823 W/m² | - |
| 1777999193 | 32.78° C | 66% | 1017.4 hPa | 0 mm | - | 343 W/m² | - |
| 1777998890 | 32.22° C | 65% | 1017.4 hPa | 0 mm | - | 817 W/m² | - |
* Rain latest hour (hover to see other rain measurements)
** Current wind speed in m/s (hover to see current wind gust speed)